Powrót do katalogu

DELTA 1 DEB

AktywnySSO
NORAD 18475·DEBRIS·🇺🇸 United States

Wystrzelony Jan 22, 1975 z Vandenberg Space Force Base

Loading…

Następne Przeloty (najbliższe 24 godziny)

TLE

ŚwieżeSource: Space-Track

Epoka: Sep 14, 2026, 03:57 UTC

1 18475U 75004HK  26257.16474399  .00000277  00000-0  68673-4 0  9996
2 18475  97.8952 224.9387 0045505 287.1112  72.5107 14.58306715160866

Śledź DELTA 1 DEB w czasie rzeczywistym z AllMySat

Download on the App Store